Time,TemperatureF,DewpointF,PressureIn,WindDirection,WindDirectionDegrees,WindSpeedMPH,WindSpeedGustMPH,Humidity,HourlyPrecipIn,Conditions,Clouds,dailyrainin,SoftwareType,DateUTC
2013-09-19 00:01:00,60.6,29.8,30.18,NNE,22,-999.0,-999.0,31,0.00,,FEW070,0.00,VWS V14.01,2013-09-19 04:01:00,
2013-09-19 00:06:00,60.4,29.6,30.18,NNE,22,-999.0,-999.0,31,0.00,,FEW070,0.00,VWS V14.01,2013-09-19 04:06:00,
2013-09-19 00:08:00,60.2,29.5,30.18,NNE,22,-999.0,-999.0,31,0.00,,FEW070,0.00,VWS V14.01,2013-09-19 04:08:00,
2013-09-19 00:13:00,60.2,30.2,30.18,NNE,22,-999.0,-999.0,32,0.00,,FEW070,0.00,VWS V14.01,2013-09-19 04:13:00,
2013-09-19 00:18:00,60.1,29.4,30.18,NNE,22,-999.0,-999.0,31,0.00,,FEW070,0.00,VWS V14.01,2013-09-19 04:18:00,
2013-09-19 00:23:00,60.1,28.6,30.18,NNE,22,-999.0,-999.0,30,0.00,,FEW070,0.00,VWS V14.01,2013-09-19 04:23:00,
2013-09-19 00:28:00,59.9,27.6,30.18,NNE,22,-999.0,-999.0,29,0.00,,FEW070,0.00,VWS V14.01,2013-09-19 04:28:00,
2013-09-19 00:33:00,59.7,27.4,30.17,NNE,22,-999.0,-999.0,29,0.00,,FEW070,0.00,VWS V14.01,2013-09-19 04:33:00,
2013-09-19 00:38:00,59.7,26.6,30.18,NNE,22,-999.0,-999.0,28,0.00,,FEW070,0.00,VWS V14.01,2013-09-19 04:38:00,
2013-09-19 00:43:00,59.7,26.6,30.18,NNE,22,-999.0,-999.0,28,0.00,,FEW070,0.00,VWS V14.01,2013-09-19 04:43:00,
2013-09-19 00:48:00,59.5,26.4,30.18,NNE,22,-999.0,-999.0,28,0.00,,FEW070,0.00,VWS V14.01,2013-09-19 04:48:00,
2013-09-19 00:53:00,59.5,25.5,30.18,NNE,22,-999.0,-999.0,27,0.00,,FEW070,0.00,VWS V14.01,2013-09-19 04:53:00,
2013-09-19 00:58:00,59.5,25.5,30.18,NNE,22,-999.0,-999.0,27,0.00,,FEW070,0.00,VWS V14.01,2013-09-19 04:58:00,
2013-09-19 01:03:00,59.3,23.5,30.17,NNE,22,-999.0,-999.0,25,0.00,,FEW070,0.00,VWS V14.01,2013-09-19 05:03:00,
2013-09-19 01:08:00,59.2,23.4,30.18,NNE,22,-999.0,-999.0,25,0.00,,FEW070,0.00,VWS V14.01,2013-09-19 05:08:00,
2013-09-19 01:13:00,59.2,23.4,30.17,NNE,22,-999.0,-999.0,25,0.00,,FEW070,0.00,VWS V14.01,2013-09-19 05:13:00,
2013-09-19 01:18:00,59.2,22.5,30.18,NNE,22,-999.0,-999.0,24,0.00,,FEW070,0.00,VWS V14.01,2013-09-19 05:18:00,
2013-09-19 01:23:00,59.0,21.3,30.17,NNE,22,-999.0,-999.0,23,0.00,,FEW070,0.00,VWS V14.01,2013-09-19 05:23:00,
2013-09-19 01:28:00,59.0,21.3,30.17,NNE,22,-999.0,-999.0,23,0.00,,FEW070,0.00,VWS V14.01,2013-09-19 05:28:00,
2013-09-19 01:33:00,59.0,20.2,30.17,NNE,22,-999.0,-999.0,22,0.00,,FEW070,0.00,VWS V14.01,2013-09-19 05:33:00,
2013-09-19 01:38:00,58.8,20.1,30.17,NNE,22,-999.0,-999.0,22,0.00,,FEW070,0.00,VWS V14.01,2013-09-19 05:38:00,
2013-09-19 01:43:00,58.8,20.1,30.17,NNE,22,-999.0,-999.0,22,0.00,,FEW070,0.00,VWS V14.01,2013-09-19 05:43:00,
2013-09-19 01:48:00,58.8,20.1,30.17,NNE,22,-999.0,-999.0,22,0.00,,FEW070,0.00,VWS V14.01,2013-09-19 05:48:00,
2013-09-19 01:53:00,58.8,20.1,30.17,NNE,22,-999.0,-999.0,22,0.00,,FEW070,0.00,VWS V14.01,2013-09-19 05:53:00,
2013-09-19 01:58:00,58.6,18.8,30.17,NNE,22,-999.0,-999.0,21,0.00,,FEW070,0.00,VWS V14.01,2013-09-19 05:58:00,
2013-09-19 02:03:00,58.4,18.6,30.16,NNE,22,-999.0,-999.0,21,0.00,,FEW080,0.00,VWS V14.01,2013-09-19 06:03:00,
2013-09-19 02:08:00,58.4,16.3,30.16,NNE,22,-999.0,-999.0,19,0.00,,FEW080,0.00,VWS V14.01,2013-09-19 06:08:00,
2013-09-19 02:13:00,58.4,15.1,30.16,NNE,22,-999.0,-999.0,18,0.00,,FEW080,0.00,VWS V14.01,2013-09-19 06:13:00,
2013-09-19 02:18:00,58.3,13.7,30.16,NNE,22,-999.0,-999.0,17,0.00,,FEW080,0.00,VWS V14.01,2013-09-19 06:18:00,
2013-09-19 02:23:00,58.3,15.0,30.16,NNE,22,-999.0,-999.0,18,0.00,,FEW080,0.00,VWS V14.01,2013-09-19 06:23:00,
2013-09-19 02:28:00,58.1,13.6,30.16,NNE,22,-999.0,-999.0,17,0.00,,FEW080,0.00,VWS V14.01,2013-09-19 06:28:00,
2013-09-19 02:33:00,58.1,13.6,30.16,NNE,22,-999.0,-999.0,17,0.00,,FEW080,0.00,VWS V14.01,2013-09-19 06:33:00,
2013-09-19 02:38:00,58.1,13.6,30.16,NNE,22,-999.0,-999.0,17,0.00,,FEW080,0.00,VWS V14.01,2013-09-19 06:38:00,
2013-09-19 02:43:00,58.1,13.6,30.16,NNE,22,-999.0,-999.0,17,0.00,,FEW080,0.00,VWS V14.01,2013-09-19 06:43:00,
2013-09-19 02:48:00,58.1,13.6,30.16,NNE,22,-999.0,-999.0,17,0.00,,FEW080,0.00,VWS V14.01,2013-09-19 06:48:00,
2013-09-19 02:53:00,58.1,13.6,30.16,NNE,22,-999.0,-999.0,17,0.00,,FEW080,0.00,VWS V14.01,2013-09-19 06:53:00,
2013-09-19 02:58:00,58.1,13.6,30.16,NNE,22,-999.0,-999.0,17,0.00,,FEW080,0.00,VWS V14.01,2013-09-19 06:58:00,
2013-09-19 03:03:00,58.1,13.6,30.16,NNE,22,-999.0,-999.0,17,0.00,,FEW070,0.00,VWS V14.01,2013-09-19 07:03:00,
2013-09-19 03:08:00,57.9,13.4,30.16,NNE,22,-999.0,-999.0,17,0.00,,FEW070,0.00,VWS V14.01,2013-09-19 07:08:00,
2013-09-19 03:13:00,57.9,13.4,30.15,NNE,22,-999.0,-999.0,17,0.00,,FEW070,0.00,VWS V14.01,2013-09-19 07:13:00,
2013-09-19 03:18:00,57.9,12.0,30.16,NNE,22,-999.0,-999.0,16,0.00,,FEW070,0.00,VWS V14.01,2013-09-19 07:18:00,
2013-09-19 03:23:00,57.9,12.0,30.15,NNE,22,-999.0,-999.0,16,0.00,,FEW070,0.00,VWS V14.01,2013-09-19 07:23:00,
2013-09-19 03:28:00,57.9,12.0,30.16,NNE,22,-999.0,-999.0,16,0.00,,FEW070,0.00,VWS V14.01,2013-09-19 07:28:00,
2013-09-19 03:33:00,57.9,10.6,30.16,NNE,22,-999.0,-999.0,15,0.00,,FEW070,0.00,VWS V14.01,2013-09-19 07:33:00,
2013-09-19 03:38:00,57.9,7.4,30.16,NNE,22,-999.0,-999.0,13,0.00,,FEW070,0.00,VWS V14.01,2013-09-19 07:38:00,
2013-09-19 03:43:00,58.1,7.5,30.16,NNE,22,-999.0,-999.0,13,0.00,,FEW070,0.00,VWS V14.01,2013-09-19 07:43:00,
2013-09-19 03:48:00,58.1,5.8,30.15,NNE,22,-999.0,-999.0,12,0.00,,FEW070,0.00,VWS V14.01,2013-09-19 07:48:00,
2013-09-19 03:53:00,57.9,7.4,30.15,NNE,22,-999.0,-999.0,13,0.00,,FEW070,0.00,VWS V14.01,2013-09-19 07:53:00,
2013-09-19 03:58:00,57.7,7.2,30.15,NNE,22,-999.0,-999.0,13,0.00,,FEW070,0.00,VWS V14.01,2013-09-19 07:58:00,
2013-09-19 04:03:00,57.7,8.9,30.15,NNE,22,-999.0,-999.0,14,0.00,,OVC065,0.00,VWS V14.01,2013-09-19 08:03:00,
2013-09-19 04:08:00,57.7,7.2,30.15,NNE,22,-999.0,-999.0,13,0.00,,OVC065,0.00,VWS V14.01,2013-09-19 08:08:00,
2013-09-19 04:13:00,57.7,5.5,30.15,NNE,22,-999.0,-999.0,12,0.00,,OVC065,0.00,VWS V14.01,2013-09-19 08:13:00,
2013-09-19 04:18:00,57.9,3.7,30.15,NNE,22,-999.0,-999.0,11,0.00,,OVC065,0.00,VWS V14.01,2013-09-19 08:18:00,
2013-09-19 04:23:00,57.9,5.6,30.15,NNE,22,-999.0,-999.0,12,0.00,,OVC065,0.00,VWS V14.01,2013-09-19 08:23:00,
2013-09-19 04:28:00,58.1,3.9,30.15,NNE,22,-999.0,-999.0,11,0.00,,OVC065,0.00,VWS V14.01,2013-09-19 08:28:00,
2013-09-19 04:33:00,58.3,2.0,30.15,NNE,22,-999.0,-999.0,10,0.00,,OVC065,0.00,VWS V14.01,2013-09-19 08:33:00,
2013-09-19 04:38:00,58.4,4.1,30.16,NNE,22,-999.0,-999.0,11,0.00,,OVC065,0.00,VWS V14.01,2013-09-19 08:38:00,
2013-09-19 04:43:00,58.4,4.1,30.15,NNE,22,-999.0,-999.0,11,0.00,,OVC065,0.00,VWS V14.01,2013-09-19 08:43:00,
2013-09-19 04:48:00,58.6,4.3,30.15,NNE,22,-999.0,-999.0,11,0.00,,OVC065,0.00,VWS V14.01,2013-09-19 08:48:00,
2013-09-19 04:53:00,58.8,4.4,30.15,NNE,22,-999.0,-999.0,11,0.00,,OVC065,0.00,VWS V14.01,2013-09-19 08:53:00,
2013-09-19 04:58:00,58.8,2.4,30.15,NNE,22,-999.0,-999.0,10,0.00,,OVC065,0.00,VWS V14.01,2013-09-19 08:58:00,
2013-09-19 05:03:00,58.8,2.4,30.15,NNE,22,-999.0,-999.0,10,0.00,,OVC060,0.00,VWS V14.01,2013-09-19 09:03:00,
2013-09-19 05:08:00,59.0,-5.0,30.15,NNE,22,-999.0,-999.0,7,0.00,,OVC060,0.00,VWS V14.01,2013-09-19 09:08:00,
2013-09-19 05:13:00,59.0,-2.2,30.16,NNE,22,-999.0,-999.0,8,0.00,,OVC060,0.00,VWS V14.01,2013-09-19 09:13:00,
2013-09-19 05:18:00,59.0,2.5,30.16,NNE,22,-999.0,-999.0,10,0.00,,OVC060,0.00,VWS V14.01,2013-09-19 09:18:00,
2013-09-19 05:23:00,59.2,4.7,30.16,NNE,22,-999.0,-999.0,11,0.00,,OVC060,0.00,VWS V14.01,2013-09-19 09:23:00,
2013-09-19 05:28:00,59.2,4.7,30.16,NNE,22,-999.0,-999.0,11,0.00,,OVC060,0.00,VWS V14.01,2013-09-19 09:28:00,
2013-09-19 05:33:00,59.3,2.8,30.16,NNE,22,-999.0,-999.0,10,0.00,,OVC060,0.00,VWS V14.01,2013-09-19 09:33:00,
2013-09-19 05:38:00,59.5,5.0,30.16,NNE,22,-999.0,-999.0,11,0.00,,OVC060,0.00,VWS V14.01,2013-09-19 09:38:00,
2013-09-19 05:43:00,59.5,5.0,30.16,NNE,22,-999.0,-999.0,11,0.00,,OVC060,0.00,VWS V14.01,2013-09-19 09:43:00,
2013-09-19 05:48:00,59.7,3.0,30.16,NNE,22,-999.0,-999.0,10,0.00,,OVC060,0.00,VWS V14.01,2013-09-19 09:48:00,
2013-09-19 05:53:00,59.7,3.0,30.16,NNE,22,-999.0,-999.0,10,0.00,,OVC060,0.00,VWS V14.01,2013-09-19 09:53:00,
2013-09-19 05:58:00,59.7,-1.7,30.16,NNE,22,-999.0,-999.0,8,0.00,,OVC060,0.00,VWS V14.01,2013-09-19 09:58:00,
2013-09-19 06:03:00,59.7,-1.7,30.16,NNE,22,-999.0,-999.0,8,0.00,,OVC060,0.00,VWS V14.01,2013-09-19 10:03:00,
2013-09-19 06:08:00,59.7,3.0,30.16,NNE,22,-999.0,-999.0,10,0.00,,OVC060,0.00,VWS V14.01,2013-09-19 10:08:00,
2013-09-19 06:13:00,59.9,-1.6,30.16,NNE,22,-999.0,-999.0,8,0.00,,OVC060,0.00,VWS V14.01,2013-09-19 10:13:00,
2013-09-19 06:18:00,59.9,3.2,30.16,NNE,22,-999.0,-999.0,10,0.00,,OVC060,0.00,VWS V14.01,2013-09-19 10:18:00,
2013-09-19 06:23:00,59.9,3.2,30.16,NNE,22,-999.0,-999.0,10,0.00,,OVC060,0.00,VWS V14.01,2013-09-19 10:23:00,
2013-09-19 06:28:00,59.9,5.3,30.16,NNE,22,-999.0,-999.0,11,0.00,,OVC060,0.00,VWS V14.01,2013-09-19 10:28:00,
2013-09-19 06:33:00,60.1,-4.2,30.16,NNE,22,-999.0,-999.0,7,0.00,,OVC060,0.00,VWS V14.01,2013-09-19 10:33:00,
2013-09-19 06:38:00,60.1,-4.2,30.16,NNE,22,-999.0,-999.0,7,0.00,,OVC060,0.00,VWS V14.01,2013-09-19 10:38:00,
2013-09-19 06:43:00,60.1,-1.4,30.16,NNE,22,-999.0,-999.0,8,0.00,,OVC060,0.00,VWS V14.01,2013-09-19 10:43:00,
2013-09-19 06:48:00,60.1,-1.4,30.16,NNE,22,-999.0,-999.0,8,0.00,,OVC060,0.00,VWS V14.01,2013-09-19 10:48:00,
2013-09-19 06:53:00,60.1,3.4,30.16,NNE,22,-999.0,-999.0,10,0.00,,OVC060,0.00,VWS V14.01,2013-09-19 10:53:00,
2013-09-19 06:58:00,60.1,-1.4,30.16,NNE,22,-999.0,-999.0,8,0.00,,OVC060,0.00,VWS V14.01,2013-09-19 10:58:00,
2013-09-19 07:03:00,60.1,-1.4,30.16,NNE,22,-999.0,-999.0,8,0.00,,OVC055,0.00,VWS V14.01,2013-09-19 11:03:00,
2013-09-19 07:08:00,60.1,3.4,30.16,NNE,22,-999.0,-999.0,10,0.00,,OVC055,0.00,VWS V14.01,2013-09-19 11:08:00,
2013-09-19 07:13:00,60.1,9.1,30.16,NNE,22,-999.0,-999.0,13,0.00,,OVC055,0.00,VWS V14.01,2013-09-19 11:13:00,
2013-09-19 07:18:00,60.1,12.3,30.16,NNE,22,-999.0,-999.0,15,0.00,,OVC055,0.00,VWS V14.01,2013-09-19 11:18:00,
2013-09-19 07:23:00,60.2,12.4,30.16,NNE,22,-999.0,-999.0,15,0.00,,OVC055,0.00,VWS V14.01,2013-09-19 11:23:00,
2013-09-19 07:28:00,60.2,9.2,30.16,NNE,22,-999.0,-999.0,13,0.00,,OVC055,0.00,VWS V14.01,2013-09-19 11:28:00,
2013-09-19 07:33:00,60.4,12.6,30.16,NNE,22,-999.0,-999.0,15,0.00,,OVC055,0.00,VWS V14.01,2013-09-19 11:33:00,
2013-09-19 07:38:00,60.4,14.0,30.16,NNE,22,-999.0,-999.0,16,0.00,,OVC055,0.00,VWS V14.01,2013-09-19 11:38:00,
2013-09-19 07:43:00,60.6,11.2,30.17,NNE,22,-999.0,-999.0,14,0.00,,OVC055,0.00,VWS V14.01,2013-09-19 11:43:00,
2013-09-19 07:48:00,60.6,9.5,30.16,NNE,22,-999.0,-999.0,13,0.00,,OVC055,0.00,VWS V14.01,2013-09-19 11:48:00,
2013-09-19 07:53:00,60.8,15.7,30.17,NNE,22,-999.0,-999.0,17,0.00,,OVC055,0.00,VWS V14.01,2013-09-19 11:53:00,
2013-09-19 07:58:00,61.0,14.5,30.17,NNE,22,-999.0,-999.0,16,0.00,,OVC055,0.00,VWS V14.01,2013-09-19 11:58:00,
2013-09-19 08:03:00,61.1,16.0,30.17,NNE,22,-999.0,-999.0,17,0.00,,OVC055,0.00,VWS V14.01,2013-09-19 12:03:00,
2013-09-19 08:08:00,61.5,17.6,30.17,NNE,22,-999.0,-999.0,18,0.00,,OVC055,0.00,VWS V14.01,2013-09-19 12:08:00,
2013-09-19 08:13:00,61.7,20.2,30.17,NNE,22,-999.0,-999.0,20,0.00,,OVC055,0.00,VWS V14.01,2013-09-19 12:13:00,
2013-09-19 08:18:00,61.7,23.5,30.17,NNE,22,-999.0,-999.0,23,0.00,,OVC055,0.00,VWS V14.01,2013-09-19 12:18:00,
2013-09-19 08:23:00,61.9,24.7,30.17,NNE,22,-999.0,-999.0,24,0.00,,OVC055,0.00,VWS V14.01,2013-09-19 12:23:00,
2013-09-19 08:28:00,61.9,25.7,30.17,NNE,22,-999.0,-999.0,25,0.00,,OVC055,0.00,VWS V14.01,2013-09-19 12:28:00,
2013-09-19 08:33:00,62.2,26.0,30.17,NNE,22,-999.0,-999.0,25,0.00,,OVC055,0.00,VWS V14.01,2013-09-19 12:33:00,
2013-09-19 08:38:00,62.2,26.0,30.17,NNE,22,-999.0,-999.0,25,0.00,,OVC055,0.00,VWS V14.01,2013-09-19 12:38:00,
2013-09-19 08:43:00,62.4,26.1,30.17,NNE,22,-999.0,-999.0,25,0.00,,OVC055,0.00,VWS V14.01,2013-09-19 12:43:00,
2013-09-19 08:48:00,62.6,28.1,30.18,NNE,22,-999.0,-999.0,27,0.00,,OVC055,0.00,VWS V14.01,2013-09-19 12:48:00,
2013-09-19 08:53:00,62.8,30.1,30.17,NNE,22,-999.0,-999.0,29,0.00,,OVC055,0.00,VWS V14.01,2013-09-19 12:53:00,
2013-09-19 08:58:00,63.1,31.2,30.17,NNE,22,-999.0,-999.0,30,0.00,,OVC055,0.00,VWS V14.01,2013-09-19 12:58:00,
2013-09-19 09:03:00,63.1,32.8,30.17,NNE,22,-999.0,-999.0,32,0.00,,OVC055,0.00,VWS V14.01,2013-09-19 13:03:00,
2013-09-19 09:08:00,63.5,32.3,30.18,NNE,22,-999.0,-999.0,31,0.00,,OVC055,0.00,VWS V14.01,2013-09-19 13:08:00,
2013-09-19 09:13:00,63.7,34.8,30.18,NE,45,-999.0,-999.0,34,0.00,,OVC055,0.00,VWS V14.01,2013-09-19 13:13:00,
2013-09-19 09:18:00,63.8,36.3,30.18,NE,45,-999.0,-999.0,36,0.00,,OVC055,0.00,VWS V14.01,2013-09-19 13:18:00,
2013-09-19 09:23:00,63.8,36.3,30.18,NE,45,-999.0,-999.0,36,0.00,,OVC055,0.00,VWS V14.01,2013-09-19 13:23:00,
2013-09-19 09:28:00,64.0,36.5,30.18,NE,45,-999.0,-999.0,36,0.00,,OVC055,0.00,VWS V14.01,2013-09-19 13:28:00,
2013-09-19 09:33:00,64.2,36.7,30.18,NE,45,-999.0,-999.0,36,0.00,,OVC055,0.00,VWS V14.01,2013-09-19 13:33:00,
2013-09-19 09:38:00,64.6,38.4,30.18,NE,45,-999.0,-999.0,38,0.00,,OVC055,0.00,VWS V14.01,2013-09-19 13:38:00,
2013-09-19 09:43:00,64.6,38.4,30.18,NE,45,-999.0,-999.0,38,0.00,,OVC055,0.00,VWS V14.01,2013-09-19 13:43:00,
2013-09-19 09:48:00,64.7,39.2,30.19,NE,45,-999.0,-999.0,39,0.00,,OVC055,0.00,VWS V14.01,2013-09-19 13:48:00,
2013-09-19 09:53:00,64.8,39.3,30.18,NE,45,-999.0,-999.0,39,0.00,,OVC055,0.00,VWS V14.01,2013-09-19 13:53:00,
2013-09-19 09:58:00,65.2,41.6,30.19,WSW,248,-999.0,-999.0,42,0.00,,OVC055,0.00,VWS V14.01,2013-09-19 13:58:00,
2013-09-19 10:03:00,65.5,41.9,30.19,SW,225,-999.0,-999.0,42,0.00,,OVC055,0.00,VWS V14.01,2013-09-19 14:03:00,
2013-09-19 10:08:00,65.9,42.8,30.19,SSW,202,-999.0,-999.0,43,0.00,,OVC055,0.00,VWS V14.01,2013-09-19 14:08:00,
2013-09-19 10:13:00,65.9,44.6,30.19,SSW,202,-999.0,-999.0,46,0.00,,OVC055,0.00,VWS V14.01,2013-09-19 14:13:00,
2013-09-19 10:18:00,66.1,44.8,30.19,SW,225,-999.0,-999.0,46,0.00,,OVC055,0.00,VWS V14.01,2013-09-19 14:18:00,
2013-09-19 10:23:00,66.1,45.3,30.19,SW,225,-999.0,-999.0,47,0.00,,OVC055,0.00,VWS V14.01,2013-09-19 14:23:00,
2013-09-19 10:28:00,66.4,45.6,30.19,SW,225,-999.0,-999.0,47,0.00,,OVC055,0.00,VWS V14.01,2013-09-19 14:28:00,
2013-09-19 10:33:00,66.6,46.9,30.18,SSW,202,-999.0,-999.0,49,0.00,,OVC055,0.00,VWS V14.01,2013-09-19 14:33:00,
2013-09-19 10:38:00,67.0,47.8,30.18,SSW,202,-999.0,-999.0,50,0.00,,OVC055,0.00,VWS V14.01,2013-09-19 14:38:00,
2013-09-19 10:42:00,67.3,48.1,30.19,SSW,202,-999.0,-999.0,50,0.00,,OVC055,0.00,VWS V14.01,2013-09-19 14:42:00,
2013-09-19 10:47:00,67.7,48.4,30.19,SW,225,-999.0,-999.0,50,0.00,,OVC055,0.00,VWS V14.01,2013-09-19 14:47:00,
2013-09-19 10:52:00,67.9,49.1,30.19,SW,225,-999.0,-999.0,51,0.00,,OVC055,0.00,VWS V14.01,2013-09-19 14:52:00,
2013-09-19 10:57:00,68.1,50.9,30.19,SW,225,-999.0,-999.0,54,0.00,,OVC055,0.00,VWS V14.01,2013-09-19 14:57:00,
2013-09-19 11:02:00,68.1,50.9,30.19,SW,225,-999.0,-999.0,54,0.00,,OVC055,0.00,VWS V14.01,2013-09-19 15:02:00,
2013-09-19 11:07:00,68.2,51.0,30.19,SW,225,-999.0,-999.0,54,0.00,,OVC055,0.00,VWS V14.01,2013-09-19 15:07:00,
2013-09-19 11:12:00,68.4,50.6,30.18,WSW,248,-999.0,-999.0,53,0.00,,OVC055,0.00,VWS V14.01,2013-09-19 15:12:00,
2013-09-19 11:17:00,68.8,52.0,30.19,South,180,-999.0,-999.0,55,0.00,,OVC055,0.00,VWS V14.01,2013-09-19 15:17:00,
2013-09-19 11:22:00,68.8,52.0,30.18,WSW,248,-999.0,-999.0,55,0.00,,OVC055,0.00,VWS V14.01,2013-09-19 15:22:00,
2013-09-19 11:27:00,69.0,51.7,30.18,NW,315,-999.0,-999.0,54,0.00,,OVC055,0.00,VWS V14.01,2013-09-19 15:27:00,
2013-09-19 11:32:00,69.1,52.3,30.18,SW,225,-999.0,-999.0,55,0.00,,OVC055,0.00,VWS V14.01,2013-09-19 15:32:00,
2013-09-19 11:37:00,69.5,52.6,30.19,WNW,292,-999.0,-999.0,55,0.00,,OVC055,0.00,VWS V14.01,2013-09-19 15:37:00,
2013-09-19 11:42:00,69.7,53.3,30.19,SW,225,-999.0,-999.0,56,0.00,,OVC055,0.00,VWS V14.01,2013-09-19 15:42:00,
2013-09-19 11:47:00,69.9,54.0,30.19,SSW,202,-999.0,-999.0,57,0.00,,OVC055,0.00,VWS V14.01,2013-09-19 15:47:00,
2013-09-19 11:53:00,69.5,53.6,30.19,SSW,202,-999.0,-999.0,57,0.00,,OVC055,0.00,VWS V14.01,2013-09-19 15:53:00,
2013-09-19 11:58:00,69.5,53.6,30.19,SW,225,-999.0,-999.0,57,0.00,,OVC055,0.00,VWS V14.01,2013-09-19 15:58:00,
2013-09-19 12:03:00,69.7,53.8,30.19,SW,225,-999.0,-999.0,57,0.00,,OVC060,0.00,VWS V14.01,2013-09-19 16:03:00,
2013-09-19 12:08:00,70.0,54.1,30.18,SW,225,-999.0,-999.0,57,0.00,,OVC060,0.00,VWS V14.01,2013-09-19 16:08:00,
2013-09-19 12:13:00,70.6,55.1,30.18,SSW,202,-999.0,-999.0,58,0.00,,OVC060,0.00,VWS V14.01,2013-09-19 16:13:00,
2013-09-19 12:18:00,70.9,55.9,30.18,SE,135,-999.0,-999.0,59,0.00,,OVC060,0.00,VWS V14.01,2013-09-19 16:18:00,
2013-09-19 12:23:00,71.3,55.8,30.18,NNE,22,-999.0,-999.0,58,0.00,,OVC060,0.00,VWS V14.01,2013-09-19 16:23:00,
2013-09-19 12:28:00,71.7,56.1,30.18,WNW,292,-999.0,-999.0,58,0.00,,OVC060,0.00,VWS V14.01,2013-09-19 16:28:00,
2013-09-19 12:33:00,72.0,56.4,30.17,WNW,292,-999.0,-999.0,58,0.00,,OVC060,0.00,VWS V14.01,2013-09-19 16:33:00,
2013-09-19 12:38:00,72.0,56.9,30.17,East,90,-999.0,-999.0,59,0.00,,OVC060,0.00,VWS V14.01,2013-09-19 16:38:00,
2013-09-19 12:43:00,71.8,56.7,30.17,East,90,-999.0,-999.0,59,0.00,,OVC060,0.00,VWS V14.01,2013-09-19 16:43:00,
2013-09-19 12:48:00,72.0,56.4,30.17,East,90,-999.0,-999.0,58,0.00,,OVC060,0.00,VWS V14.01,2013-09-19 16:48:00,
2013-09-19 12:53:00,72.2,57.1,30.17,East,90,-999.0,-999.0,59,0.00,,OVC060,0.00,VWS V14.01,2013-09-19 16:53:00,
2013-09-19 12:58:00,73.6,57.9,30.16,East,90,-999.0,-999.0,58,0.00,,OVC060,0.00,VWS V14.01,2013-09-19 16:58:00,
2013-09-19 13:03:00,74.2,58.0,30.16,East,90,-999.0,-999.0,57,0.00,,BKN250,0.00,VWS V14.01,2013-09-19 17:03:00,
2013-09-19 13:08:00,74.4,58.2,30.16,East,90,-999.0,-999.0,57,0.00,,BKN250,0.00,VWS V14.01,2013-09-19 17:08:00,
2013-09-19 13:13:00,74.8,58.6,30.15,East,90,-999.0,-999.0,57,0.00,,BKN250,0.00,VWS V14.01,2013-09-19 17:13:00,
2013-09-19 13:18:00,75.2,58.0,30.15,East,90,-999.0,-999.0,55,0.00,,BKN250,0.00,VWS V14.01,2013-09-19 17:18:00,
2013-09-19 13:23:00,74.4,57.7,30.15,East,90,-999.0,-999.0,56,0.00,,BKN250,0.00,VWS V14.01,2013-09-19 17:23:00,
2013-09-19 13:28:00,74.2,57.5,30.15,East,90,-999.0,-999.0,56,0.00,,BKN250,0.00,VWS V14.01,2013-09-19 17:28:00,
2013-09-19 13:33:00,74.3,58.1,30.14,East,90,-999.0,-999.0,57,0.00,,BKN250,0.00,VWS V14.01,2013-09-19 17:33:00,
2013-09-19 13:38:00,74.8,58.6,30.14,East,90,-999.0,-999.0,57,0.00,,BKN250,0.00,VWS V14.01,2013-09-19 17:38:00,
2013-09-19 13:42:00,74.8,58.1,30.14,East,90,-999.0,-999.0,56,0.00,,BKN250,0.00,VWS V14.01,2013-09-19 17:42:00,
2013-09-19 13:47:00,75.2,58.5,30.14,East,90,-999.0,-999.0,56,0.00,,BKN250,0.00,VWS V14.01,2013-09-19 17:47:00,
2013-09-19 13:52:00,75.9,59.1,30.14,East,90,-999.0,-999.0,56,0.00,,BKN250,0.00,VWS V14.01,2013-09-19 17:52:00,
2013-09-19 13:57:00,76.1,59.3,30.14,NE,45,-999.0,-999.0,56,0.00,,BKN250,0.00,VWS V14.01,2013-09-19 17:57:00,
2013-09-19 14:02:00,75.7,58.9,30.14,East,90,-999.0,-999.0,56,0.00,,BKN100,0.00,VWS V14.01,2013-09-19 18:02:00,
2013-09-19 14:07:00,76.1,59.3,30.14,NW,315,-999.0,-999.0,56,0.00,,BKN100,0.00,VWS V14.01,2013-09-19 18:07:00,
2013-09-19 14:12:00,76.2,59.4,30.13,SW,225,-999.0,-999.0,56,0.00,,BKN100,0.00,VWS V14.01,2013-09-19 18:12:00,
2013-09-19 14:17:00,76.4,59.6,30.13,SSE,158,-999.0,-999.0,56,0.00,,BKN100,0.00,VWS V14.01,2013-09-19 18:17:00,
2013-09-19 14:22:00,76.4,59.1,30.13,NW,315,-999.0,-999.0,55,0.00,,BKN100,0.00,VWS V14.01,2013-09-19 18:22:00,
2013-09-19 14:27:00,76.4,59.1,30.13,NE,45,-999.0,-999.0,55,0.00,,BKN100,0.00,VWS V14.01,2013-09-19 18:27:00,
2013-09-19 14:32:00,77.0,60.1,30.13,WSW,248,-999.0,-999.0,56,0.00,,BKN100,0.00,VWS V14.01,2013-09-19 18:32:00,
2013-09-19 14:37:00,77.9,60.5,30.12,WNW,292,-999.0,-999.0,55,0.00,,BKN100,0.00,VWS V14.01,2013-09-19 18:37:00,
2013-09-19 14:42:00,77.7,59.8,30.12,SSE,158,-999.0,-999.0,54,0.00,,BKN100,0.00,VWS V14.01,2013-09-19 18:42:00,
2013-09-19 14:47:00,77.5,60.1,30.12,WSW,248,-999.0,-999.0,55,0.00,,BKN100,0.00,VWS V14.01,2013-09-19 18:47:00,
2013-09-19 14:52:00,78.0,60.5,30.12,WSW,248,-999.0,-999.0,55,0.00,,BKN100,0.00,VWS V14.01,2013-09-19 18:52:00,
2013-09-19 14:57:00,78.6,60.6,30.12,NE,45,-999.0,-999.0,54,0.00,,BKN100,0.00,VWS V14.01,2013-09-19 18:57:00,
2013-09-19 15:02:00,78.4,60.4,30.12,SSE,158,-999.0,-999.0,54,0.00,,BKN250,0.00,VWS V14.01,2013-09-19 19:02:00,
2013-09-19 15:07:00,78.2,60.2,30.12,SSE,158,-999.0,-999.0,54,0.00,,BKN250,0.00,VWS V14.01,2013-09-19 19:07:00,
2013-09-19 15:12:00,78.4,60.4,30.12,North,0,-999.0,-999.0,54,0.00,,BKN250,0.00,VWS V14.01,2013-09-19 19:12:00,
2013-09-19 15:17:00,78.6,60.1,30.11,East,90,-999.0,-999.0,53,0.00,,BKN250,0.00,VWS V14.01,2013-09-19 19:17:00,
2013-09-19 15:22:00,78.0,60.5,30.11,SE,135,-999.0,-999.0,55,0.00,,BKN250,0.00,VWS V14.01,2013-09-19 19:22:00,
2013-09-19 15:27:00,78.2,60.7,30.10,SE,135,-999.0,-999.0,55,0.00,,BKN250,0.00,VWS V14.01,2013-09-19 19:27:00,
2013-09-19 15:32:00,78.6,60.6,30.10,SSE,158,-999.0,-999.0,54,0.00,,BKN250,0.00,VWS V14.01,2013-09-19 19:32:00,
2013-09-19 15:37:00,79.3,61.2,30.10,NNW,338,-999.0,-999.0,54,0.00,,BKN250,0.00,VWS V14.01,2013-09-19 19:37:00,
2013-09-19 15:42:00,79.1,61.0,30.10,SSE,158,-999.0,-999.0,54,0.00,,BKN250,0.00,VWS V14.01,2013-09-19 19:42:00,
2013-09-19 15:47:00,79.1,61.0,30.10,East,90,-999.0,-999.0,54,0.00,,BKN250,0.00,VWS V14.01,2013-09-19 19:47:00,
2013-09-19 15:52:00,78.9,60.9,30.09,ESE,112,-999.0,-999.0,54,0.00,,BKN250,0.00,VWS V14.01,2013-09-19 19:52:00,
2013-09-19 15:57:00,78.8,60.8,30.09,SE,135,-999.0,-999.0,54,0.00,,BKN250,0.00,VWS V14.01,2013-09-19 19:57:00,
2013-09-19 16:02:00,78.8,61.3,30.10,SSW,202,-999.0,-999.0,55,0.00,,BKN250,0.00,VWS V14.01,2013-09-19 20:02:00,
2013-09-19 16:07:00,79.7,61.6,30.10,NW,315,-999.0,-999.0,54,0.00,,BKN250,0.00,VWS V14.01,2013-09-19 20:07:00,
2013-09-19 16:12:00,80.0,61.3,30.10,NE,45,-999.0,-999.0,53,0.00,,BKN250,0.00,VWS V14.01,2013-09-19 20:12:00,
2013-09-19 16:17:00,79.8,61.7,30.10,NNE,22,-999.0,-999.0,54,0.00,,BKN250,0.00,VWS V14.01,2013-09-19 20:17:00,
2013-09-19 16:22:00,79.7,61.6,30.09,NE,45,-999.0,-999.0,54,0.00,,BKN250,0.00,VWS V14.01,2013-09-19 20:22:00,
2013-09-19 16:27:00,80.2,61.5,30.09,NE,45,-999.0,-999.0,53,0.00,,BKN250,0.00,VWS V14.01,2013-09-19 20:27:00,
2013-09-19 16:32:00,80.0,61.3,30.09,SSW,202,-999.0,-999.0,53,0.00,,BKN250,0.00,VWS V14.01,2013-09-19 20:32:00,
2013-09-19 16:37:00,80.2,62.1,30.09,ESE,112,-999.0,-999.0,54,0.00,,BKN250,0.00,VWS V14.01,2013-09-19 20:37:00,
2013-09-19 16:42:00,80.0,61.9,30.09,SE,135,-999.0,-999.0,54,0.00,,BKN250,0.00,VWS V14.01,2013-09-19 20:42:00,
2013-09-19 16:47:00,79.7,61.6,30.09,ENE,68,-999.0,-999.0,54,0.00,,BKN250,0.00,VWS V14.01,2013-09-19 20:47:00,
2013-09-19 16:52:00,79.7,61.6,30.09,ENE,68,-999.0,-999.0,54,0.00,,BKN250,0.00,VWS V14.01,2013-09-19 20:52:00,
2013-09-19 16:57:00,80.2,62.1,30.09,SW,225,-999.0,-999.0,54,0.00,,BKN250,0.00,VWS V14.01,2013-09-19 20:57:00,
2013-09-19 17:02:00,80.7,61.4,30.09,North,0,-999.0,-999.0,52,0.00,,BKN250,0.00,VWS V14.01,2013-09-19 21:02:00,
2013-09-19 17:07:00,80.2,61.5,30.09,SSE,158,-999.0,-999.0,53,0.00,,BKN250,0.00,VWS V14.01,2013-09-19 21:07:00,
2013-09-19 17:12:00,79.8,61.7,30.09,SW,225,-999.0,-999.0,54,0.00,,BKN250,0.00,VWS V14.01,2013-09-19 21:12:00,
2013-09-19 17:17:00,79.5,61.4,30.09,SSW,202,-999.0,-999.0,54,0.00,,BKN250,0.00,VWS V14.01,2013-09-19 21:17:00,
2013-09-19 17:22:00,79.3,61.8,30.09,SW,225,-999.0,-999.0,55,0.00,,BKN250,0.00,VWS V14.01,2013-09-19 21:22:00,
2013-09-19 17:27:00,79.5,61.9,30.09,SW,225,-999.0,-999.0,55,0.00,,BKN250,0.00,VWS V14.01,2013-09-19 21:27:00,
2013-09-19 17:32:00,79.5,61.9,30.09,SE,135,-999.0,-999.0,55,0.00,,BKN250,0.00,VWS V14.01,2013-09-19 21:32:00,
2013-09-19 17:37:00,79.7,62.1,30.09,SSW,202,-999.0,-999.0,55,0.00,,BKN250,0.00,VWS V14.01,2013-09-19 21:37:00,
2013-09-19 17:42:00,79.3,61.8,30.09,SW,225,-999.0,-999.0,55,0.00,,BKN250,0.00,VWS V14.01,2013-09-19 21:42:00,
2013-09-19 17:47:00,78.9,61.4,30.09,SW,225,-999.0,-999.0,55,0.00,,BKN250,0.00,VWS V14.01,2013-09-19 21:47:00,
2013-09-19 17:52:00,78.6,61.6,30.09,WSW,248,-999.0,-999.0,56,0.00,,BKN250,0.00,VWS V14.01,2013-09-19 21:52:00,
2013-09-19 17:57:00,78.4,61.4,30.09,SSW,202,-999.0,-999.0,56,0.00,,BKN250,0.00,VWS V14.01,2013-09-19 21:57:00,
2013-09-19 18:02:00,77.9,61.5,30.09,South,180,-999.0,-999.0,57,0.00,,BKN250,0.00,VWS V14.01,2013-09-19 22:02:00,
2013-09-19 18:07:00,77.3,60.9,30.09,SW,225,-999.0,-999.0,57,0.00,,BKN250,0.00,VWS V14.01,2013-09-19 22:07:00,
2013-09-19 18:12:00,77.1,60.7,30.09,SSE,158,-999.0,-999.0,57,0.00,,BKN250,0.00,VWS V14.01,2013-09-19 22:12:00,
2013-09-19 18:17:00,77.0,60.6,30.09,SE,135,-999.0,-999.0,57,0.00,,BKN250,0.00,VWS V14.01,2013-09-19 22:17:00,
2013-09-19 18:22:00,76.8,60.5,30.09,SW,225,-999.0,-999.0,57,0.00,,BKN250,0.00,VWS V14.01,2013-09-19 22:22:00,
2013-09-19 18:27:00,76.6,60.3,30.09,SW,225,-999.0,-999.0,57,0.00,,BKN250,0.00,VWS V14.01,2013-09-19 22:27:00,
2013-09-19 18:32:00,76.6,60.3,30.09,SW,225,-999.0,-999.0,57,0.00,,BKN250,0.00,VWS V14.01,2013-09-19 22:32:00,
2013-09-19 18:37:00,76.2,59.9,30.09,SW,225,-999.0,-999.0,57,0.00,,BKN250,0.00,VWS V14.01,2013-09-19 22:37:00,
2013-09-19 18:42:00,76.1,59.3,30.09,South,180,-999.0,-999.0,56,0.00,,BKN250,0.00,VWS V14.01,2013-09-19 22:42:00,
2013-09-19 18:47:00,75.9,59.1,30.09,West,270,-999.0,-999.0,56,0.00,,BKN250,0.00,VWS V14.01,2013-09-19 22:47:00,
2013-09-19 18:52:00,75.7,59.4,30.09,SW,225,-999.0,-999.0,57,0.00,,BKN250,0.00,VWS V14.01,2013-09-19 22:52:00,
2013-09-19 18:57:00,75.7,59.4,30.09,SSW,202,-999.0,-999.0,57,0.00,,BKN250,0.00,VWS V14.01,2013-09-19 22:57:00,
2013-09-19 19:02:00,75.5,59.2,30.09,WSW,248,-999.0,-999.0,57,0.00,,BKN250,0.00,VWS V14.01,2013-09-19 23:02:00,
2013-09-19 19:07:00,75.5,59.2,30.09,North,0,-999.0,-999.0,57,0.00,,BKN250,0.00,VWS V14.01,2013-09-19 23:07:00,
2013-09-19 19:12:00,75.2,58.5,30.09,NNW,338,-999.0,-999.0,56,0.00,,BKN250,0.00,VWS V14.01,2013-09-19 23:12:00,
2013-09-19 19:17:00,74.8,58.1,30.09,West,270,-999.0,-999.0,56,0.00,,BKN250,0.00,VWS V14.01,2013-09-19 23:17:00,
2013-09-19 19:22:00,74.7,57.9,30.09,NE,45,-999.0,-999.0,56,0.00,,BKN250,0.00,VWS V14.01,2013-09-19 23:22:00,
2013-09-19 19:27:00,74.4,57.2,30.09,SE,135,-999.0,-999.0,55,0.00,,BKN250,0.00,VWS V14.01,2013-09-19 23:27:00,
2013-09-19 19:32:00,74.2,57.5,30.09,SE,135,-999.0,-999.0,56,0.00,,BKN250,0.00,VWS V14.01,2013-09-19 23:32:00,
2013-09-19 19:37:00,73.8,56.6,30.09,SSE,158,-999.0,-999.0,55,0.00,,BKN250,0.00,VWS V14.01,2013-09-19 23:37:00,
2013-09-19 19:42:00,73.5,56.3,30.09,SW,225,-999.0,-999.0,55,0.00,,BKN250,0.00,VWS V14.01,2013-09-19 23:42:00,
2013-09-19 19:47:00,73.5,56.3,30.09,SW,225,-999.0,-999.0,55,0.00,,BKN250,0.00,VWS V14.01,2013-09-19 23:47:00,
2013-09-19 19:52:00,73.3,56.1,30.09,SW,225,-999.0,-999.0,55,0.00,,BKN250,0.00,VWS V14.01,2013-09-19 23:52:00,
2013-09-19 19:57:00,73.3,56.1,30.09,SW,225,-999.0,-999.0,55,0.00,,BKN250,0.00,VWS V14.01,2013-09-19 23:57:00,
2013-09-19 20:02:00,73.1,55.5,30.09,SW,225,-999.0,-999.0,54,0.00,,BKN250,0.00,VWS V14.01,2013-09-20 00:02:00,
2013-09-19 20:07:00,72.7,55.1,30.09,SW,225,-999.0,-999.0,54,0.00,,BKN250,0.00,VWS V14.01,2013-09-20 00:07:00,
2013-09-19 20:12:00,72.6,55.0,30.09,WSW,248,-999.0,-999.0,54,0.00,,BKN250,0.00,VWS V14.01,2013-09-20 00:12:00,
2013-09-19 20:17:00,72.2,54.1,30.09,WSW,248,-999.0,-999.0,53,0.00,,BKN250,0.00,VWS V14.01,2013-09-20 00:17:00,
2013-09-19 20:22:00,72.0,53.4,30.09,WSW,248,-999.0,-999.0,52,0.00,,BKN250,0.00,VWS V14.01,2013-09-20 00:22:00,
2013-09-19 20:27:00,71.7,53.1,30.09,WSW,248,-999.0,-999.0,52,0.00,,BKN250,0.00,VWS V14.01,2013-09-20 00:27:00,
2013-09-19 20:32:00,71.5,52.4,30.09,WSW,248,-999.0,-999.0,51,0.00,,BKN250,0.00,VWS V14.01,2013-09-20 00:32:00,
2013-09-19 20:37:00,71.3,52.2,30.09,WSW,248,-999.0,-999.0,51,0.00,,BKN250,0.00,VWS V14.01,2013-09-20 00:37:00,
2013-09-19 20:42:00,70.9,51.3,30.09,WSW,248,-999.0,-999.0,50,0.00,,BKN250,0.00,VWS V14.01,2013-09-20 00:42:00,
2013-09-19 20:47:00,70.8,51.2,30.09,WSW,248,-999.0,-999.0,50,0.00,,BKN250,0.00,VWS V14.01,2013-09-20 00:47:00,
2013-09-19 20:52:00,70.4,50.3,30.09,WSW,248,-999.0,-999.0,49,0.00,,BKN250,0.00,VWS V14.01,2013-09-20 00:52:00,
2013-09-19 20:57:00,70.2,49.6,30.09,WSW,248,-999.0,-999.0,48,0.00,,BKN250,0.00,VWS V14.01,2013-09-20 00:57:00,
2013-09-19 21:02:00,70.0,48.9,30.09,WSW,248,-999.0,-999.0,47,0.00,,SCT250,0.00,VWS V14.01,2013-09-20 01:02:00,
2013-09-19 21:07:00,69.9,48.8,30.09,WSW,248,-999.0,-999.0,47,0.00,,SCT250,0.00,VWS V14.01,2013-09-20 01:07:00,
2013-09-19 21:12:00,69.7,48.0,30.09,WSW,248,-999.0,-999.0,46,0.00,,SCT250,0.00,VWS V14.01,2013-09-20 01:12:00,
2013-09-19 21:17:00,69.5,47.2,30.09,WSW,248,-999.0,-999.0,45,0.00,,SCT250,0.00,VWS V14.01,2013-09-20 01:17:00,
2013-09-19 21:22:00,69.5,46.7,30.10,WSW,248,-999.0,-999.0,44,0.00,,SCT250,0.00,VWS V14.01,2013-09-20 01:22:00,
2013-09-19 21:27:00,69.1,44.4,30.09,WSW,248,-999.0,-999.0,41,0.00,,SCT250,0.00,VWS V14.01,2013-09-20 01:27:00,
2013-09-19 21:32:00,68.8,43.5,30.09,WSW,248,-999.0,-999.0,40,0.00,,SCT250,0.00,VWS V14.01,2013-09-20 01:32:00,
2013-09-19 21:37:00,68.4,43.2,30.09,WSW,248,-999.0,-999.0,40,0.00,,SCT250,0.00,VWS V14.01,2013-09-20 01:37:00,
2013-09-19 21:42:00,68.4,43.2,30.09,WSW,248,-999.0,-999.0,40,0.00,,SCT250,0.00,VWS V14.01,2013-09-20 01:42:00,
2013-09-19 21:47:00,68.2,42.3,30.09,WSW,248,-999.0,-999.0,39,0.00,,SCT250,0.00,VWS V14.01,2013-09-20 01:47:00,
2013-09-19 21:52:00,68.1,42.2,30.09,WSW,248,-999.0,-999.0,39,0.00,,SCT250,0.00,VWS V14.01,2013-09-20 01:52:00,
2013-09-19 21:57:00,67.9,41.4,30.09,WSW,248,-999.0,-999.0,38,0.00,,SCT250,0.00,VWS V14.01,2013-09-20 01:57:00,
2013-09-19 22:02:00,67.7,39.1,30.09,WSW,248,-999.0,-999.0,35,0.00,,SCT130,0.00,VWS V14.01,2013-09-20 02:02:00,
2013-09-19 22:07:00,67.5,38.9,30.09,WSW,248,-999.0,-999.0,35,0.00,,SCT130,0.00,VWS V14.01,2013-09-20 02:07:00,
2013-09-19 22:12:00,67.3,38.0,30.09,WSW,248,-999.0,-999.0,34,0.00,,SCT130,0.00,VWS V14.01,2013-09-20 02:12:00,
2013-09-19 22:17:00,67.3,37.3,30.09,WSW,248,-999.0,-999.0,33,0.00,,SCT130,0.00,VWS V14.01,2013-09-20 02:17:00,
2013-09-19 22:22:00,67.2,36.4,30.09,WSW,248,-999.0,-999.0,32,0.00,,SCT130,0.00,VWS V14.01,2013-09-20 02:22:00,
2013-09-19 22:27:00,67.2,36.4,30.08,WSW,248,-999.0,-999.0,32,0.00,,SCT130,0.00,VWS V14.01,2013-09-20 02:27:00,
2013-09-19 22:32:00,67.0,36.2,30.08,WSW,248,-999.0,-999.0,32,0.00,,SCT130,0.00,VWS V14.01,2013-09-20 02:32:00,
2013-09-19 22:37:00,66.8,35.2,30.08,WSW,248,-999.0,-999.0,31,0.00,,SCT130,0.00,VWS V14.01,2013-09-20 02:37:00,
2013-09-19 22:42:00,66.6,35.1,30.08,WSW,248,-999.0,-999.0,31,0.00,,SCT130,0.00,VWS V14.01,2013-09-20 02:42:00,
2013-09-19 22:47:00,66.6,34.2,30.08,WSW,248,-999.0,-999.0,30,0.00,,SCT130,0.00,VWS V14.01,2013-09-20 02:47:00,
2013-09-19 22:52:00,66.4,33.2,30.08,WSW,248,-999.0,-999.0,29,0.00,,SCT130,0.00,VWS V14.01,2013-09-20 02:52:00,
2013-09-19 22:57:00,66.3,31.4,30.08,WSW,248,-999.0,-999.0,27,0.00,,SCT130,0.00,VWS V14.01,2013-09-20 02:57:00,
2013-09-19 23:02:00,66.3,31.4,30.09,WSW,248,-999.0,-999.0,27,0.00,,FEW070,0.00,VWS V14.01,2013-09-20 03:02:00,
2013-09-19 23:07:00,66.1,29.3,30.08,WSW,248,-999.0,-999.0,25,0.00,,FEW070,0.00,VWS V14.01,2013-09-20 03:07:00,
2013-09-19 23:12:00,65.9,30.1,30.09,WSW,248,-999.0,-999.0,26,0.00,,FEW070,0.00,VWS V14.01,2013-09-20 03:12:00,
2013-09-19 23:17:00,65.9,24.9,30.08,WSW,248,-999.0,-999.0,21,0.00,,FEW070,0.00,VWS V14.01,2013-09-20 03:17:00,
2013-09-19 23:22:00,65.7,27.0,30.08,WSW,248,-999.0,-999.0,23,0.00,,FEW070,0.00,VWS V14.01,2013-09-20 03:22:00,
2013-09-19 23:27:00,65.5,24.6,30.08,WSW,248,-999.0,-999.0,21,0.00,,FEW070,0.00,VWS V14.01,2013-09-20 03:27:00,
2013-09-19 23:32:00,65.5,24.6,30.08,WSW,248,-999.0,-999.0,21,0.00,,FEW070,0.00,VWS V14.01,2013-09-20 03:32:00,
2013-09-19 23:37:00,65.5,24.6,30.09,WSW,248,-999.0,-999.0,21,0.00,,FEW070,0.00,VWS V14.01,2013-09-20 03:37:00,
2013-09-19 23:42:00,65.4,24.5,30.09,WSW,248,-999.0,-999.0,21,0.00,,FEW070,0.00,VWS V14.01,2013-09-20 03:42:00,
2013-09-19 23:47:00,65.4,24.5,30.09,WSW,248,-999.0,-999.0,21,0.00,,FEW070,0.00,VWS V14.01,2013-09-20 03:47:00,
2013-09-19 23:52:00,65.4,22.1,30.09,WSW,248,-999.0,-999.0,19,0.00,,FEW070,0.00,VWS V14.01,2013-09-20 03:52:00,
2013-09-19 23:57:00,65.2,20.7,30.09,WSW,248,-999.0,-999.0,18,0.00,,FEW070,0.00,VWS V14.01,2013-09-20 03:57:00,